Wind_Speed
5 5 5 5 4 3 5 5 4 4 4 4 4 5 5 6 5 5 5 5 6 6 5 5 4 4 4 4 3 4 3 3 3 3 3 3 3 2 1 1 2 2 2 1 1 1 1 1 1
6 6 6 5 5 4 7 6 5 5 5 5 5 6 6 6 6 6 6 6 6 6 6 5 5 5 5 5 5 4 4 4 5 4 4 4 4 3 3 3 2 3 2 2 2 2 2 2 2
7 7 7 6 7 7 8 7 6 6 6 6 6 6 6 6 6 6 7 7 7 7 6 6 6 6 5 5 5 5 4 5 5 4 5 5 5 4 4 4 3 3 3 3 2 2 2 3 3
8 8 7 7 8 9 9 8 8 7 7 7 7 7 8 8 7 8 8 8 8 8 7 7 7 7 7 6 6 6 5 5 5 5 5 5 6 6 5 5 4 4 4 3 3 3 3 3 3
9 8 8 8 8 9 10 10 8 8 8 7 8 9 9 8 8 8 8 8 8 9 9 8 8 8 8 7 7 7 6 7 7 6 6 7 7 7 6 6 5 5 4 4 4 4 4 4 4
10 9 9 9 9 9 10 10 9 8 8 9 9 9 9 9 9 8 9 9 9 9 10 10 10 9 9 8 8 8 8 8 7 7 8 8 8 7 7 7 6 6 6 5 5 5 5 5 5
11 11 11 11 11 10 10 9 9 9 9 9 10 10 10 11 10 9 9 9 9 10 11 11 11 9 9 9 9 9 9 9 9 8 9 9 9 8 8 7 7 7 7 6 6 6 6 6 5
12 12 12 12 12 12 12 10 10 9 10 10 10 11 12 11 10 10 11 11 11 11 11 11 11 10 10 11 11 10 10 10 10 10 10 9 10 9 8 8 8 8 8 7 7 6 7 7 7
13 13 13 13 14 13 12 11 11 10 10 10 11 12 13 11 11 12 12 12 12 12 12 12 11 11 11 11 11 11 11 10 10 11 11 10 10 10 10 9 9 9 9 8 8 8 8 8 8
13 14 14 14 14 14 13 13 12 12 11 12 13 13 13 12 12 13 13 12 13 13 12 12 12 12 12 12 12 11 12 11 11 11 11 11 11 11 11 11 10 10 10 10 9 9 9 10 9
13 14 14 14 14 14 14 14 14 13 12 13 13 13 13 14 14 14 14 14 13 13 13 13 13 13 12 12 12 12 12 13 13 12 11 11 12 11 12 12 11 11 11 11 11 11 11 11 11
14 14 14 15 15 15 15 15 15 15 14 14 14 14 14 14 15 15 15 15 14 14 14 14 14 14 13 13 13 12 13 13 13 13 12 12 12 12 13 13 13 12 12 12 12 11 11 12 12
14 14 14 15 16 16 16 16 16 16 15 14 15 16 16 16 16 16 16 16 15 15 15 15 15 14 14 14 14 13 13 13 13 12 12 12 13 13 13 13 12 12 12 12 12 12 12 12 12
14 15 15 16 17 17 17 18 18 17 17 16 16 17 17 17 16 16 16 16 16 15 16 16 15 15 15 14 15 14 13 13 13 12 12 13 14 14 14 13 12 13 13 13 13 13 12 12 11
15 15 16 17 17 18 17 18 19 19 19 18 18 18 18 17 17 16 16 16 17 17 16 16 16 15 16 16 15 15 15 14 14 13 13 13 14 14 14 14 13 13 13 13 14 13 13 12 13
15 15 16 18 19 19 19 19 19 19 20 19 18 18 18 17 17 17 17 17 17 16 17 17 17 16 16 16 16 16 16 16 14 13 12 13 14 14 15 14 14 13 14 14 13 14 13 13 13
15 15 16 19 20 20 20 19 20 19 19 19 19 19 18 18 19 18 18 18 17 17 17 17 17 18 17 17 16 16 17 16 15 14 13 13 14 15 15 15 15 15 14 14 14 14 14 14 14
16 16 17 18 20 20 20 21 21 20 20 20 20 19 19 19 19 19 18 18 17 18 17 17 17 17 17 17 17 16 17 17 16 15 14 13 14 14 14 15 15 15 15 15 14 14 15 14 15
17 17 18 19 20 19 20 21 21 21 20 20 20 19 18 19 19 19 19 19 18 18 17 17 17 16 16 16 17 17 16 17 17 16 15 15 15 15 15 15 15 16 16 16 16 15 15 15 15
18 17 17 18 19 19 19 20 20 20 20 19 19 19 18 18 19 19 20 19 18 18 18 17 17 17 16 16 16 16 16 16 17 16 17 16 16 16 17 16 16 17 17 17 16 15 16 16 16
17 17 17 18 19 19 19 19 19 18 19 19 18 18 18 19 19 19 19 19 19 19 18 18 18 18 17 16 16 16 17 17 17 17 17 17 17 17 17 17 16 17 17 17 17 16 16 17 17
16 16 16 17 18 18 19 18 19 19 19 19 18 18 17 18 17 18 18 18 19 19 19 19 19 18 18 17 17 17 17 17 17 17 17 18 18 18 18 17 17 18 18 17 17 17 17 17 17
17 18 17 17 18 19 18 18 18 18 18 17 17 17 17 16 17 17 18 19 19 19 20 19 19 18 18 18 18 18 18 18 17 17 17 18 18 19 19 19 18 18 18 18 18 18 18 18 18
18 18 18 18 18 18 17 17 17 16 17 17 17 16 16 17 17 18 18 19 19 19 19 19 19 19 19 18 18 18 18 18 17 17 17 17 18 19 18 18 17 18 18 18 19 18 19 18 19
19 18 17 17 17 17 17 18 17 17 17 17 17 16 16 17 18 18 18 19 19 19 19 19 19 19 19 18 18 18 18 18 18 17 17 18 18 17 17 18 18 17 18 18 19 19 19 19 19
20 18 18 18 16 16 17 18 18 18 17 16 17 16 17 17 18 18 18 18 18 19 18 18 18 18 18 18 18 18 18 18 18 18 18 17 17 17 17 18 19 18 19 19 19 19 19 20 20
19 18 18 19 18 17 17 18 18 18 17 17 17 17 17 17 18 18 18 18 18 18 18 18 17 17 18 18 18 18 18 18 18 18 18 19 19 19 19 19 19 20 20 20 19 20 20 20 20
19 19 19 18 18 18 18 18 18 19 18 18 17 17 17 17 17 17 18 18 18 18 18 17 17 17 17 17 18 18 17 18 18 18 19 19 18 19 20 20 20 21 21 20 21 21 21 21 22
19 20 19 19 19 19 19 18 20 19 19 18 17 17 17 17 18 18 18 19 19 18 18 18 17 17 18 18 18 18 18 18 19 19 19 18 19 19 20 20 20 21 22 22 22 22 22 22 23
20 20 19 19 20 20 20 20 21 20 19 19 18 17 17 18 18 18 19 19 19 20 19 19 19 18 18 18 19 18 19 19 19 19 19 19 20 20 20 21 22 22 22 22 22 22 22 22 23
Wind_Direction
232 236 240 237 239 250 258 264 268 277 275 288 304 315 318 315 309 308 307 312 312 313 313 308 306 300 292 294 285 267 260 258 254 253 245 239 241 244 254 270 289 288 262 233 237 253 250 234 216
236 235 236 237 231 247 262 264 268 278 283 294 310 323 320 318 307 300 301 303 302 303 304 301 303 297 289 290 290 276 272 265 259 254 252 249 247 246 252 254 268 279 261 248 244 245 242 240 230
234 237 240 238 233 235 253 260 267 278 285 292 305 317 325 318 317 311 303 301 300 299 300 296 293 291 291 289 286 278 277 273 266 259 256 251 247 244 249 256 258 262 254 249 242 246 252 253 251
236 238 241 240 241 245 253 260 267 276 284 293 301 309 316 316 313 311 304 296 295 294 294 293 288 286 288 289 283 277 275 278 274 265 259 253 249 248 249 252 256 258 255 250 250 250 252 259 257
238 240 243 243 247 254 258 261 268 273 285 296 298 304 311 314 310 309 303 294 291 291 292 289 287 281 280 282 280 277 278 277 272 269 268 264 254 248 248 248 249 253 256 255 257 254 250 253 253
240 242 244 247 252 259 264 261 267 273 284 293 295 298 306 310 310 309 303 296 292 292 290 287 285 282 277 279 281 281 279 278 271 269 268 266 255 249 249 248 247 247 248 249 249 250 254 255 254
241 242 242 247 253 258 262 264 268 272 277 283 289 293 299 305 305 304 301 299 295 293 290 285 281 280 279 279 279 280 278 276 270 265 264 261 253 248 249 249 248 248 248 248 247 249 252 254 254
245 245 248 251 255 257 260 264 270 273 277 282 284 287 290 297 299 299 299 296 293 291 288 283 282 279 278 278 277 276 276 275 272 266 262 258 251 247 248 246 245 246 248 251 252 252 250 253 254
246 245 250 253 255 258 261 265 269 276 279 280 281 282 284 287 291 294 294 291 288 286 284 281 282 280 278 279 278 275 270 270 270 265 262 254 250 247 248 245 242 243 246 251 255 254 252 256 255
246 249 251 253 257 259 263 266 269 274 280 281 281 281 280 284 287 290 292 293 287 283 281 279 282 280 277 277 278 276 271 264 267 268 265 256 252 249 246 242 241 243 246 248 252 253 256 260 259
247 250 254 256 257 259 263 266 269 274 279 280 280 281 282 285 287 288 289 290 286 281 279 280 281 281 278 276 276 274 272 266 264 264 265 261 256 252 248 243 242 244 245 247 250 253 256 260 260
248 251 255 257 259 260 262 266 270 272 275 277 277 281 283 284 284 286 288 288 286 281 278 280 281 281 278 275 274 271 271 269 266 260 260 260 255 253 250 245 245 243 243 245 249 253 257 260 261
249 251 255 258 261 262 265 267 270 272 273 275 276 279 282 283 284 285 285 285 285 281 279 279 278 278 277 274 272 270 270 269 265 261 259 259 253 252 251 247 246 244 244 245 248 251 257 260 259
250 251 256 261 264 265 266 266 269 270 271 274 275 277 281 283 285 286 284 283 284 281 280 278 278 276 274 274 271 270 270 266 263 263 258 256 252 250 250 247 246 245 246 249 249 250 256 257 258
255 256 260 264 265 265 266 267 269 269 271 274 276 277 278 281 283 284 285 285 286 285 282 280 277 275 272 271 269 266 265 267 265 263 259 255 253 250 248 249 247 244 247 250 251 253 254 254 257
259 261 264 267 267 267 267 268 271 270 272 273 275 276 276 279 281 282 284 287 287 287 286 281 277 275 270 268 265 264 264 265 264 259 258 254 251 249 249 251 249 247 248 251 255 254 254 257 259
262 265 267 270 271 269 268 268 268 271 272 273 273 272 273 275 278 280 283 287 287 286 287 286 283 277 271 265 262 262 262 261 260 259 256 254 253 253 254 252 250 250 249 251 254 255 257 259 259
263 265 269 271 274 272 270 269 269 270 271 272 270 269 270 272 274 277 281 285 284 284 286 287 285 283 272 265 262 261 260 262 258 257 254 252 254 257 259 255 252 250 251 254 256 258 258 261 261
264 269 272 273 275 274 272 272 271 270 269 270 270 269 270 270 271 274 277 281 281 281 284 285 285 284 275 267 265 262 261 259 256 256 255 253 253 256 259 257 254 252 253 255 257 260 261 261 263
270 274 274 273 274 273 275 273 272 270 268 268 266 269 269 267 269 272 276 278 278 278 280 282 284 281 273 266 263 261 260 264 258 257 258 255 255 256 256 257 258 255 254 256 258 260 263 262 265
273 274 272 274 275 274 276 275 273 272 269 269 267 268 268 267 268 270 273 275 276 274 276 280 282 278 272 267 263 261 262 263 259 261 259 256 255 255 255 255 257 256 257 257 256 260 263 264 266
272 271 272 275 276 277 277 280 278 273 270 270 268 267 269 268 268 270 271 272 274 273 274 278 278 275 271 267 264 263 262 262 260 260 260 256 256 255 254 253 255 257 257 256 256 257 261 264 267
269 270 273 276 277 277 278 279 280 276 273 271 268 266 267 265 266 270 271 271 271 271 273 275 276 273 270 268 264 262 259 259 258 259 260 259 256 253 252 255 257 256 254 253 253 257 260 263 266
269 273 276 279 280 281 280 277 278 277 275 272 269 268 265 265 267 269 270 270 271 272 272 274 275 273 269 266 263 262 259 255 254 257 259 258 256 253 252 254 255 254 252 252 254 257 260 263 267
268 271 276 278 278 281 280 277 278 277 275 273 272 270 269 268 268 268 270 271 273 275 274 274 273 271 266 263 261 258 255 251 252 255 258 260 258 258 256 252 254 256 256 256 259 260 261 264 267
267 267 270 275 277 277 277 280 281 281 278 274 270 270 270 269 269 269 271 272 273 273 272 271 269 268 263 260 257 254 251 252 255 257 260 259 258 260 257 254 253 255 257 260 263 264 264 266 267
268 269 271 273 272 273 275 280 283 283 281 277 272 269 268 267 268 270 272 272 271 270 271 270 268 267 261 259 256 253 252 255 258 260 262 260 260 260 259 256 255 256 258 263 265 267 267 268 269
266 269 271 271 271 273 277 280 282 285 283 278 277 275 271 268 267 268 272 272 270 270 269 271 269 266 263 261 256 253 254 256 260 264 265 261 260 261 259 257 259 259 261 262 266 269 269 270 272
265 267 269 271 270 274 276 278 281 280 281 278 276 277 276 274 271 269 270 269 267 265 267 268 266 264 262 260 256 256 259 261 263 265 263 262 263 264 262 263 265 266 264 265 267 270 270 271 272
265 268 270 273 275 276 276 277 278 279 278 276 275 276 276 275 274 272 270 269 265 265 266 264 264 264 261 260 258 260 263 263 262 262 265 266 267 268 268 269 269 269 268 268 269 269 270 271 272
Height
5899 5899 5900 5901 5903 5905 5904 5903 5903 5903 5902 5902 5901 5900 5900 5900 5900 5901 5898 5896 5895 5894 5894 5893 5893 5893 5892 5892 5892 5892 5891 5891 5891 5891 5890 5890 5890 5890 5890 5889 5889 5889 5889 5888 5888 5888 5888 5888 5888
5898 5898 5900 5901 5903 5905 5904 5902 5902 5902 5901 5901 5900 5899 5899 5898 5897 5896 5895 5894 5893 5893 5892 5892 5892 5891 5891 5891 5890 5890 5890 5890 5889 5889 5889 5889 5889 5889 5889 5888 5888 5888 5888 5888 5888 5888 5887 5887 5887
5896 5897 5899 5901 5902 5903 5902 5901 5901 5900 5900 5899 5899 5898 5898 5897 5896 5894 5893 5892 5892 5891 5890 5890 5890 5890 5890 5889 5889 5889 5888 5888 5888 5888 5888 5888 5888 5887 5887 5887 5887 5887 5887 5887 5887 5887 5887 5887 5887
5895 5897 5898 5900 5900 5900 5900 5900 5899 5899 5898 5898 5898 5897 5896 5895 5894 5893 5892 5891 5890 5889 5888 5888 5888 5888 5888 5888 5887 5887 5887 5886 5886 5886 5886 5886 5886 5886 5886 5886 5886 5886 5886 5886 5886 5886 5886 5886 5886
5893 5895 5897 5898 5898 5898 5897 5897 5897 5897 5897 5896 5896 5895 5894 5893 5892 5891 5890 5889 5888 5887 5886 5886 5886 5886 5886 5886 5885 5885 5885 5884 5884 5884 5884 5884 5884 5884 5884 5884 5884 5885 5885 5885 5885 5885 5885 5885 5885
5892 5894 5896 5896 5896 5896 5895 5895 5896 5896 5895 5895 5894 5894 5893 5891 5890 5889 5888 5887 5886 5885 5884 5884 5884 5884 5884 5884 5883 5883 5882 5882 5882 5882 5882 5882 5882 5882 5883 5883 5883 5883 5883 5883 5883 5884 5884 5884 5884
5891 5892 5893 5894 5894 5894 5894 5893 5894 5894 5893 5893 5892 5892 5891 5889 5888 5887 5886 5884 5884 5883 5882 5882 5881 5881 5881 5881 5881 5881 5880 5880 5880 5879 5880 5880 5879 5880 5880 5881 5881 5881 5882 5882 5882 5882 5882 5883 5883
5887 5890 5890 5891 5892 5892 5891 5891 5891 5892 5892 5891 5890 5890 5889 5888 5886 5885 5884 5882 5881 5880 5880 5879 5879 5879 5878 5878 5878 5878 5877 5877 5877 5877 5877 5877 5877 5877 5878 5878 5879 5879 5880 5880 5880 5880 5881 5881 5881
5884 5888 5888 5889 5889 5889 5889 5889 5889 5889 5889 5889 5888 5887 5886 5885 5884 5883 5882 5880 5879 5878 5877 5877 5876 5876 5875 5875 5875 5875 5874 5874 5874 5874 5874 5874 5874 5875 5875 5876 5876 5877 5877 5878 5878 5879 5879 5879 5879
5882 5884 5885 5885 5886 5886 5886 5886 5886 5886 5886 5886 5885 5884 5883 5882 5882 5881 5879 5878 5876 5875 5875 5874 5874 5873 5872 5872 5872 5872 5871 5871 5871 5870 5871 5872 5872 5872 5873 5873 5874 5874 5875 5875 5876 5876 5876 5877 5877
5879 5880 5881 5882 5882 5883 5883 5883 5883 5883 5883 5883 5882 5881 5880 5880 5879 5878 5877 5875 5874 5873 5872 5871 5871 5870 5869 5869 5869 5868 5868 5868 5867 5868 5868 5869 5869 5869 5870 5871 5871 5871 5872 5873 5873 5874 5874 5874 5874
5876 5877 5878 5878 5879 5879 5880 5880 5880 5880 5880 5880 5879 5878 5877 5876 5875 5875 5874 5872 5871 5870 5869 5868 5868 5867 5866 5866 5866 5865 5865 5865 5864 5865 5865 5866 5866 5866 5867 5868 5868 5869 5869 5870 5871 5871 5871 5872 5872
5873 5874 5875 5875 5875 5876 5876 5876 5876 5876 5876 5876 5876 5875 5874 5873 5872 5871 5870 5869 5868 5867 5866 5865 5864 5864 5863 5863 5862 5862 5862 5861 5861 5862 5862 5863 5863 5864 5864 5865 5866 5866 5866 5867 5868 5868 5869 5869 5869
5870 5871 5871 5872 5872 5872 5873 5873 5873 5872 5872 5872 5872 5871 5871 5870 5869 5868 5867 5866 5865 5864 5863 5862 5861 5860 5859 5859 5859 5859 5858 5858 5858 5859 5859 5860 5860 5861 5862 5862 5863 5863 5864 5864 5865 5866 5866 5866 5866
5867 5868 5869 5868 5868 5868 5869 5869 5869 5868 5868 5868 5868 5867 5866 5865 5865 5864 5863 5862 5861 5860 5859 5858 5857 5856 5855 5855 5855 5855 5855 5855 5855 5855 5856 5856 5857 5858 5858 5859 5860 5860 5861 5862 5862 5863 5863 5863 5864
5863 5865 5866 5865 5864 5864 5866 5866 5865 5863 5863 5864 5863 5863 5862 5861 5860 5860 5859 5858 5857 5856 5855 5854 5852 5852 5851 5851 5851 5851 5851 5851 5852 5852 5853 5853 5854 5854 5855 5856 5856 5857 5858 5858 5859 5859 5860 5860 5860
5860 5861 5861 5861 5860 5860 5860 5861 5860 5859 5859 5859 5858 5858 5858 5857 5856 5856 5855 5854 5853 5852 5851 5849 5848 5847 5847 5847 5847 5847 5847 5848 5848 5849 5849 5850 5851 5851 5852 5852 5853 5854 5855 5855 5856 5856 5856 5857 5857
5857 5857 5857 5856 5855 5855 5855 5855 5854 5854 5853 5853 5853 5853 5853 5852 5852 5851 5850 5850 5849 5848 5847 5845 5844 5843 5842 5842 5842 5843 5844 5844 5845 5845 5846 5847 5847 5848 5848 5849 5849 5850 5851 5852 5853 5853 5853 5853 5853
5852 5852 5852 5852 5850 5850 5849 5849 5848 5848 5847 5847 5847 5847 5847 5847 5847 5847 5846 5845 5845 5844 5843 5841 5840 5839 5838 5838 5839 5839 5840 5840 5841 5842 5842 5843 5844 5844 5845 5845 5846 5847 5848 5849 5849 5849 5850 5850 5850
5847 5848 5848 5847 5846 5845 5844 5844 5843 5842 5842 5841 5842 5842 5842 5842 5842 5842 5841 5841 5840 5840 5839 5838 5836 5835 5835 5834 5835 5836 5836 5837 5837 5838 5839 5839 5840 5840 5841 5842 5842 5843 5844 5845 5845 5846 5846 5846 5846
5843 5843 5843 5842 5841 5840 5840 5840 5839 5838 5837 5836 5837 5837 5837 5837 5837 5837 5837 5836 5836 5835 5835 5833 5832 5831 5831 5831 5831 5832 5832 5833 5833 5834 5835 5836 5836 5837 5837 5838 5839 5839 5840 5841 5841 5842 5842 5842 5842
5839 5839 5838 5838 5837 5837 5837 5836 5835 5833 5832 5832 5832 5831 5832 5832 5832 5832 5832 5832 5831 5831 5830 5829 5829 5828 5827 5828 5828 5828 5828 5828 5829 5830 5831 5831 5832 5833 5833 5834 5835 5835 5836 5836 5837 5837 5837 5837 5837
5835 5834 5834 5833 5833 5833 5832 5831 5831 5828 5828 5827 5826 5826 5826 5827 5828 5828 5828 5828 5827 5826 5826 5825 5824 5823 5823 5823 5823 5824 5824 5825 5825 5826 5826 5826 5827 5828 5828 5829 5830 5830 5831 5832 5832 5832 5833 5833 5833
5829 5830 5829 5829 5829 5829 5828 5827 5826 5825 5823 5822 5821 5821 5821 5822 5823 5823 5823 5823 5822 5822 5821 5820 5820 5819 5818 5819 5819 5819 5819 5820 5821 5821 5822 5822 5823 5823 5824 5824 5825 5826 5826 5827 5827 5828 5828 5828 5828
5825 5826 5827 5826 5826 5826 5824 5822 5822 5820 5818 5818 5817 5817 5817 5818 5818 5818 5818 5818 5817 5817 5816 5815 5815 5814 5814 5814 5814 5814 5815 5816 5816 5817 5817 5818 5819 5819 5819 5820 5821 5821 5822 5822 5822 5823 5823 5824 5823
5820 5821 5823 5823 5822 5822 5819 5817 5817 5815 5814 5813 5813 5813 5813 5813 5813 5813 5813 5813 5813 5812 5811 5811 5810 5809 5809 5809 5810 5810 5811 5811 5812 5813 5813 5814 5814 5815 5815 5816 5816 5817 5817 5817 5818 5818 5818 5818 5818
5815 5816 5817 5817 5816 5816 5815 5813 5812 5810 5810 5809 5808 5808 5808 5808 5808 5808 5808 5808 5808 5807 5807 5806 5806 5805 5805 5805 5806 5806 5807 5807 5808 5808 5809 5809 5810 5810 5811 5811 5811 5812 5812 5812 5813 5813 5813 5813 5813
5811 5811 5811 5811 5811 5811 5811 5809 5809 5806 5805 5805 5804 5803 5803 5803 5802 5802 5802 5802 5802 5802 5802 5802 5801 5801 5801 5801 5801 5802 5803 5803 5804 5804 5804 5805 5805 5805 5806 5806 5806 5806 5806 5806 5807 5807 5807 5807 5807
5806 5806 5805 5806 5805 5806 5806 5807 5803 5801 5800 5800 5799 5798 5798 5797 5797 5797 5797 5796 5796 5797 5797 5797 5797 5797 5797 5797 5797 5798 5798 5799 5799 5800 5800 5800 5800 5800 5800 5801 5801 5800 5800 5800 5800 5800 5800 5800 5800
5800 5800 5800 5801 5800 5799 5800 5802 5797 5795 5795 5794 5794 5793 5793 5793 5792 5792 5791 5791 5791 5791 5792 5792 5792 5792 5792 5792 5792 5793 5793 5794 5794 5794 5794 5795 5795 5795 5795 5794 5794 5794 5794 5794 5794 5794 5793 5793 5793